Timeline UpdatesTrip UpdatesNews PostsPvt PostsTravel TipsAdmin PostsConv PostsFollowed PostsChat RequestsBlog PostsPNR Posts

Disclaimer
Search
 
 
Mon Sep 15, 2014 15:00:03 ISTHomeTrainsΣChainsAtlasPNRForumGalleryNewsFAQTripsMembersLoginFeedback
No Recent News for this Train
Other Trains in the News **new
Latest...
Will be short terminated at Angul & will run back as 58131 Rourkela - Puri Passenger from Angul-Puri on 11/6/14 #1126575.
Sat Jun 07, 2014 (12:58PM)
⇐ Return Journey: Train# 58131

58132/Puri Rourkela Passenger (UnReserved)

Time-Table HAS CHANGED.
Sep 03 (11:54PM)
Change Departure Station:
Change Arrival Station:
Post a Train Travel TipPost a Train Travel Tip **new
Post a Comment/Question/Picture/VideoPost a Comment/Question/Picture/Video
Pantry/Catering
✕ NO Pantry Car
✕ NO Catering
Loco/Rake Reversals
SBP/Sambalpur Junction (3);
RSA - Rake Sharing
Rake/Coach Composition
slr-gn-gn-gn-gn-gn-gn-gn-slr
Loco
News    PNR    Forum    Time-Table    Availability    Fare Chart    Map    Arr/Dep History    Trips    Gallery    ΣChains    X/O    Timeline    
Travel Time: 14h 47m    64 halts    Distance: 441 km    Avg Speed: 29 km/hr
Type: Passenger
Zone: SER/South Eastern
Departs @ 03:30 (Avg 4m late)
Platform# ???
SMTWTFS
Puri/PURI 
Arrives @ 18:17
Platform# ???
SMTWTFS
Panpali/PNPL 

64 halts. 71 intermediate Stations between Puri and Panpali

Show ALL intermediate Stations  Show Old Time-Table

#CodeStation NameX/OArrivesAvgDepartsAvgHaltPFDay#KmSpeedElevZoneAddress
1PURI»Puri (5)»  -03:30+4--10.03712mECoRPuri, Odisha
2MLTMalatipatpur (1)  03:41 03:42+603:47 03:43+66 1m117.33715mECoRPuri, Odisha
3JKDPJankidaipurX  03:52 03:48-03:53 03:49-1m--110.46013mECoRChandanpur, Odisha
4SILSakhi Gopal (3)X  03:59 03:55+504:00 03:56+61m--116.46710mECoRPuri, Odisha
5BRSTBir Purushottampur  04:05 04:01+904:06 04:02+101m--122.06712mECoRSatasankha, Odisha
6JERD new halt!!  04:06-04:07-1m--126.426 ???
7DEGDelang  04:17 04:13+1104:18 04:14+111m--129.0449mECoRKhordha, Odisha
8KASRKanas Road  04:23 04:19-04:24 04:20-1m--132.7429mECoRKhordha, Odisha
9MWQMotari HaltX  04:29 04:25+1104:30 04:26+111m--136.24612mECoRMotari, Odisha
10HPGMHaripur GramX  04:37 04:33-04:38 04:34-1m--141.51022mECoRKhordha, Odisha
11KURKhurda Road Junction (7)X  05:00 04:50+005:05 04:55+55m--144.24425mECoRKhordha, Odisha
12RTNRetangX  05:16 05:05+605:17 05:06+61m--151.66019mECoRKhurdha, Odisha
13LGTRLingaraj Temple RoadX  05:24 05:13-05:25 05:14-1m--158.66739mECoRBhubaneswar, Odisha
14BBSBhubaneswar (4)  05:30 05:18+805:35 05:20+85 2m--163.15240mECoRBhubaneshwar, Odisha
15BNBHBani Bihar (2)X  05:40 05:24-05:41 05:25-1m--166.63338mECoRBhubaneswar, Odisha
16MCSMancheswar  05:46 05:31+1405:47 05:32+161m--169.94527mECoRMancheswar, Odisha
17PTABPatia P.H.  05:51 05:36-05:52 05:37-1m--172.95930mECoRBhubaneshwar, Odisha
18BRAGBarangXO  06:00 05:43+1906:01 05:52+471 9m--178.8-27mECoRDist - Cuttack, Odisha
19GBKGopalpur BalkudaX  06:08 05:55+5206:09 06:00+541 5m--186.64228mECoRGopalpur, Odisha
20KTJIKatha Jori  06:14 06:04-06:15 06:05-1m--189.31828mECoRCuttack, Odisha
21CTCCuttack Junction (5)  06:20 06:10+4406:25 06:15+485m--190.84128mECoRCuttack, Odisha
22KNPRKendrapara Road  06:31 06:21+1:0006:32 06:22+1:001m--194.94029mECoRKendrapara Road, Odisha
23MACRManguli Chowdwar  06:38 06:28-06:39 06:29-1m--199.02525mECoROrissa, Odisha
24NRGNergundi  06:45 06:35+5606:46 06:36+571m--1101.43326mECoRCuttack District, Odisha
25SQQSalagaon  06:53 06:43+5906:54 06:44+591m--1105.34929mECoRCuttack, Odisha
26CBTCharbatia  06:58 06:50+1:0406:59 06:51+1:061m--1110.24735mECoRCuttack, Odisha
27BDPGBada Padagaon  07:04 06:56-07:05 06:57-1m--1114.14831mECoRCuttack, Odisha
28GJTAGurudijhatiaX  07:11 07:03+1:0707:12 07:04+1:071m--1118.95333mECoRGurudijhat, Odisha
29MZYMachapur  07:19 07:11+1:0907:20 07:12+1:091m--1125.02748mECoRKapilash Rd, Odisha
30RJGRRajathagarhX  07:27 07:19+1:1007:28 07:20+1:131m--1128.17358mECoRRaj Athgarh, Odisha
31JRZJoranda RoadX  07:38 07:30+1:1207:39 07:31+1:121m--1140.22562mECoRDhenkanal, Odisha
32SCPRShyama Charanpur HaltX  07:44 07:39-07:45 07:40-1m--1143.55894mECoRDhenkanal, Odisha
33DNKLDhenkanal (2)O  07:55 07:45+1:0308:00 07:50+1:025m--1148.37559mECoRDhenkanal, Odisha
34DNDLDandi MalO  08:06 07:56-08:07 07:57-1m--1155.83871mECoRIndipur, Odisha
35SSPRSadashibapur  08:11 08:03+1:1108:12 08:04+1:121m--1159.65454mECoROrissa, Odisha
36MHDBMahadia Ph  08:17 08:09-08:18 08:10-1m--1164.19566mECoRMahadia, Odisha
37HNDHindol Road  08:23 08:13+1:1408:24 08:14+1:151m--1168.85664mECoROrissa, Odisha
38NBTNayabagirthipurO  08:29 08:19-08:30 08:20-1m--1173.48859mECoRDhenkanal, Odisha
39MRDLMeramandolil  08:36 08:26+1:1908:37 08:27+1:201m--1182.26573mECoROrissa, Odisha
40BDPKBurhapanka  08:44 08:34+1:2608:45 08:35+1:281m--1189.95979mECoROrissa, Odisha
41TLHDTalcher RoadX  09:41 08:42-09:42 08:43-1m--1196.72173mECoRBhogabereni, Odisha
42TLHRTalcher  09:05 09:00+1:1509:30 09:25+1:1925m--1202.6886mECoRSub-division Angul district, Odisha
43ANGLAngul (2)  11:35+511:40+95m--1220.766120mECoRAngul District, Odisha
44KPJGKerejangaX  11:52+2711:54+302m--1234.068164mECoRNational Highway 42, Odisha
45JRPDJarapadaX  12:03+3012:05+332m--1244.162205mECoRNational Highway 42, Odisha
46BONABoindaX  12:23 12:20+2812:25 12:22+342m--1259.752292mECoRState Highway 62, Odisha
47HNPAHandapa  12:35 12:30+3212:37 12:32+392m--1266.677257mECoRNational Highway 42, Odisha
48SRGPSaragipaliX  12:48 12:43+3912:50 12:45+422m--1280.658197mECoROrissa, Odisha
49BAMRBamur  12:58 12:55+3913:00 12:57+462m--1290.353181mECoRBamur, Odisha
50RAIRRairakholX  13:15+4613:17+512m--1306.269144mECoRSH 24, Odisha
51CHARCharmal  13:33 13:30+4813:35 13:32+542m--1321.165160mECoROrissa, Odisha
52JUJAJujumura  13:48+5513:50+1:022m--1338.470217mECoRSambalpur, Odisha
53HATBHatibari  14:00+1:0314:02+1:042m--1350.146189mECoROrissa, Odisha
54MANEManeswar  14:18+5714:20+582m--1362.453160mECoROrissa, Odisha
55SBPYSambalpur City  14:30+5814:32+592m--1371.324161mECoRSambalpur, Odisha
56SBPDSambalpur Road new halt!!X  14:43-14:45-2m11375.82161mECoRSambalpur, Odisha
57SBPSambalpur Junction (3)15:50 15:40+916:10 16:00+1420m11377.352159mECoRSambalpur, Odisha
58SLRASarla Junction new halt!!  16:10+1016:12+122m--1386.038160mECoRPardhiapali, Odisha
59SSNSason  16:30 16:20+1216:32 16:22+122m--1391.171171mECoRState Highway 10, Odisha
60RGLRengaliX  16:40 16:30+1416:42 16:32+172m--1400.659208mECoRState Highway 10, Odisha
61LPGLapanga  16:50 16:43+2616:52 16:45+302m--1411.467215mECoRJharsuguda, Odisha
62BXQBrundamal  17:00 16:53+3217:02 16:55+332m--1420.210209mECoRJharsuguda, Odisha
63JSGRJharsuguda Road new halt!!  17:21+1017:23+152m--1424.75225mECoRJharsuguda, Odisha
64JSGJharsuguda Junction (5)  17:50+718:00+1210m--1427.057236mSERJharsuguda, Odisha
65DTVDhutra  18:09+2118:10+221m--1435.647240mSERJharsuguda, Odisha
66PNPL•Panpali•  18:17-18:18-1m--1441.056258mSERJharsuguda, Odisha
67BEHBagdihi (3)  18:25+1918:26+201m--1447.654257mSERState Highway 24 PH: 06640-286227, Odisha
68DIHDharuadihi  18:33+2018:34+211m--1453.964258mSERSH 24, Odisha
69BMBBamra (3)X  18:43+2118:44+251m--1463.556259mSERBamra PH : 06642-229268, Odisha
70TGMTangarmunda  18:53+2118:54+221m--1471.958264mSERSundargarh, Odisha
71GPHGarpos (3)X  19:02+2219:03+231m--1479.647281mSERSundargarh, Odisha
72SOGRSogra  19:09+2019:10+211m--1484.355293mSERState Highway 10, Odisha
73SXNSonakhan  19:17+1919:18+201m--1490.855249mSERSundargarh, Odisha
74GPRaj Gangpur (3)  19:26+1719:27+181m--1498.155237mSERRaj Ganpur, Odisha
75KXNKanshbahalX  19:37+1419:38+171m--1507.347217mSERSundargarh, Odisha
76KLGKalungaX  19:47+2019:48+211m--1514.450203mSERSundargarh, Odisha
77PPOPanposh (2)  19:57+119:58+21m--1521.913190mSERRourkela, Odisha
78ROURourkela Junction (5)  20:25+5-21527.9-198mSERRourkela, Odisha
Scroll to Top
Scroll to Bottom